| time (UTC) | temp C | wind direction | speed KPH | gust KPH | rain 1hr cm | rain 24hr cm | rain mn cm | humidity % | barometer mb |
| 20260505054518 | 18 | 210 | 0.0 | 8.0 | 0.00 | 0.00 | 0.00 | 57 | 1008.3 |
| 20260505053008 | 18 | 283 | 0.0 | 4.8 | 0.00 | 0.00 | 0.00 | 57 | 1008.3 |
| 20260505051508 | 18 | 250 | 0.0 | 4.8 | 0.00 | 0.00 | 0.00 | 59 | 1008.4 |
| 20260505041603 | 16 | 230 | 0.0 | 4.8 | 0.00 | 0.00 | 0.00 | 67 | 1008.6 |
| 20260505040059 | 15 | 233 | 0.0 | 4.8 | 0.00 | 0.00 | 0.00 | 69 | 1008.6 |
| 20260505034606 | 15 | 280 | 0.0 | 6.4 | 0.00 | 0.00 | 0.00 | 69 | 1008.6 |
| 20260505033045 | 14 | 263 | 0.0 | 4.8 | 0.00 | 0.00 | 0.00 | 71 | 1008.6 |
| 20260505031544 | 14 | 244 | 0.0 | 4.8 | 0.00 | 0.00 | 0.00 | 72 | 1008.5 |
| 20260505030047 | 13 | 204 | 0.0 | 3.2 | 0.00 | 0.00 | 0.00 | 75 | 1008.5 |
| 20260505024540 | 13 | 274 | 0.0 | 0.0 | 0.00 | 0.00 | 0.00 | 77 | 1008.5 |
| 20260505023043 | 12 | 274 | 0.0 | 0.0 | 0.00 | 0.00 | 0.00 | 80 | 1008.5 |
| 20260505021538 | 12 | 274 | 0.0 | 0.0 | 0.00 | 0.00 | 0.00 | 81 | 1008.4 |
| 20260505020052 | 11 | 274 | 0.0 | 0.0 | 0.00 | 0.00 | 0.00 | 82 | 1008.4 |
| 20260505014540 | 11 | 274 | 0.0 | 0.0 | 0.00 | 0.00 | 0.00 | 83 | 1008.3 |
| 20260505013040 | 10 | 274 | 0.0 | 0.0 | 0.00 | 0.00 | 0.00 | 84 | 1008.3 |
| 20260505011534 | 10 | 274 | 0.0 | 0.0 | 0.00 | 0.00 | 0.00 | 86 | 1008.2 |
| 20260505010034 | 10 | 274 | 0.0 | 0.0 | 0.00 | 0.00 | 0.00 | 86 | 1008.1 |
| 20260505004555 | 9 | 274 | 0.0 | 0.0 | 0.00 | 0.00 | 0.00 | 87 | 1008.1 |
| 20260505003031 | 9 | 274 | 0.0 | 0.0 | 0.00 | 0.00 | 0.00 | 85 | 1008.0 |
| 20260505001536 | 10 | 274 | 0.0 | 0.0 | 0.00 | 0.00 | 0.00 | 85 | 1008.1 |
| 20260505000027 | 10 | 274 | 0.0 | 0.0 | 0.00 | 0.00 | 0.00 | 82 | 1008.0 |
| 20260504234523 | 11 | 274 | 0.0 | 0.0 | 0.00 | 0.00 | 0.00 | 80 | 1008.0 |
| 20260504233024 | 11 | 274 | 0.0 | 0.0 | 0.00 | 0.00 | 0.00 | 79 | 1007.9 |
| 20260504231521 | 11 | 274 | 0.0 | 0.0 | 0.00 | 0.00 | 0.00 | 79 | 1008.0 |
| 20260504230021 | 11 | 274 | 0.0 | 0.0 | 0.00 | 0.00 | 0.00 | 80 | 1008.0 |
| 20260504224524 | 11 | 274 | 0.0 | 0.0 | 0.00 | 0.00 | 0.00 | 78 | 1007.9 |
| 20260504223017 | 12 | 274 | 0.0 | 0.0 | 0.00 | 0.00 | 0.00 | 78 | 1008.0 |
| 20260504221516 | 12 | 274 | 0.0 | 0.0 | 0.00 | 0.00 | 0.00 | 77 | 1008.0 |
| 20260504220013 | 12 | 274 | 0.0 | 0.0 | 0.00 | 0.00 | 0.00 | 77 | 1008.0 |
| 20260504214510 | 12 | 274 | 0.0 | 0.0 | 0.00 | 0.00 | 0.00 | 76 | 1007.8 |
| 20260504213026 | 12 | 274 | 0.0 | 1.6 | 0.00 | 0.00 | 0.00 | 76 | 1007.9 |
| 20260504211510 | 12 | 272 | 0.0 | 0.0 | 0.00 | 0.00 | 0.00 | 76 | 1007.8 |
| 20260504210007 | 13 | 272 | 0.0 | 0.0 | 0.00 | 0.00 | 0.00 | 75 | 1007.7 |
| 20260504204507 | 13 | 272 | 0.0 | 0.0 | 0.00 | 0.00 | 0.00 | 73 | 1007.7 |
| 20260504203003 | 13 | 272 | 0.0 | 1.6 | 0.00 | 0.00 | 0.00 | 73 | 1007.8 |
| 20260504201607 | 13 | 250 | 0.0 | 0.0 | 0.00 | 0.00 | 0.00 | 72 | 1007.7 |
| 20260504200058 | 13 | 250 | 0.0 | 0.0 | 0.00 | 0.00 | 0.00 | 70 | 1007.7 |
| 20260504194604 | 14 | 248 | 0.0 | 6.4 | 0.00 | 0.00 | 0.00 | 69 | 1007.8 |
| 20260504193057 | 14 | 270 | 0.0 | 0.0 | 0.00 | 0.00 | 0.00 | 67 | 1007.7 |
| 20260504191621 | 15 | 270 | 0.0 | 0.0 | 0.00 | 0.00 | 0.00 | 66 | 1007.7 |
| 20260504184605 | 15 | 270 | 0.0 | 3.2 | 0.00 | 0.00 | 0.00 | 63 | 1007.7 |
| 20260504183055 | 15 | 272 | 0.0 | 8.0 | 0.00 | 0.00 | 0.00 | 59 | 1007.8 |
| 20260504181554 | 16 | 305 | 0.0 | 6.4 | 0.00 | 0.00 | 0.00 | 57 | 1007.9 |
| 20260504180054 | 16 | 254 | 0.0 | 8.0 | 0.00 | 0.00 | 0.00 | 52 | 1007.9 |
| 20260504174553 | 16 | 285 | 0.0 | 0.0 | 0.00 | 0.00 | 0.00 | 51 | 1007.8 |
| 20260504173052 | 17 | 285 | 0.0 | 0.0 | 0.00 | 0.00 | 0.00 | 49 | 1007.6 |
| 20260504171552 | 17 | 285 | 0.0 | 6.4 | 0.00 | 0.00 | 0.00 | 49 | 1007.5 |
| 20260504081506 | 17 | 191 | 1.6 | 12.9 | 0.00 | 0.00 | 0.00 | 39 | 1009.0 |